Flag for Switzerland Weather past 2 weeks in Yverdon-les-Bains, Vaud, Switzerland

Now
33 °F

Fog.


Feels Like: 30 °F
Forecast: 33 / 63 °F
Wind: 3 mph from South

Location: Payerne

Current Time: Oct 24, 2014 at 9:28:26 AM

Latest Report: Oct 24, 2014 at 8:00 AM


Visibility: 2 mi

Pressure: 30.25 "Hg

Humidity: 98%

Dew point: 32 °F

Location of Yverdon-les-BainsLocation

Historic Weather in Yverdon-les-Bains — Graph

°F

Yverdon-les-Bains temperature yesterday

Maximum temperature yesterday: 52 °F (at 4:00 PM)
Minimum temperature yesterday: 39 °F (at 9:00 AM)
Average temperature yesterday: 45 °F

Past Weeks' High & Low Weather Summary

 TemperatureHumidityPressure
High72 °F (Oct 9, 3:00 PM)100% (Oct 18, 9:00 AM)30.36 "Hg (Oct 18, 9:00 AM)
Low33 °F (Oct 24, 8:00 AM)50% (Oct 9, 4:00 PM)29.77 "Hg (Oct 15, 5:00 PM)
Average56 °F86%30.02 "Hg
* Reported Oct 9 8:00 AM — Oct 24 8:00 AM, Yverdon-les-Bains, Weather by CustomWeather, © 2014

Note: Actual official high and low records may vary slightly from our data, if they occured in-between our weather recording intervals... More about our weather records

Advertising

Yverdon-les-Bains weather history for previous 24 hours

 ConditionsComfort  
Time TempWeatherWind HumidityBarometerVisibility
8:00 AM
Oct 24
33 °FFog.3 mph98%30.25 "Hg2 mi
7:00 AM34 °FChilly.3 mph96%30.25 "HgN/A
6:00 AM34 °FChilly.3 mph96%30.25 "HgN/A
5:00 AM35 °FChilly.1 mph97%30.24 "HgN/A
4:00 AM34 °FChilly.1 mph97%30.26 "HgN/A
3:00 AM35 °FChilly.1 mph96%30.27 "HgN/A
2:00 AM36 °FClear.3 mph94%30.26 "Hg16 mi
1:00 AM36 °FChilly.1 mph95%30.27 "HgN/A
12:00 AM37 °FChilly.1 mph91%30.27 "HgN/A
11:00 PM
Oct 23
40 °FClear.1 mph84%30.26 "Hg14 mi
10:00 PM40 °FQuite cool.5 mph83%30.26 "HgN/A
9:00 PM43 °FQuite cool.3 mph76%30.25 "HgN/A
8:00 PM45 °FClear.5 mph68%30.24 "Hg14 mi
7:00 PM46 °FCool.3 mph67%30.23 "HgN/A
6:00 PM49 °FCool.5 mph59%30.22 "HgN/A
5:00 PM51 °FCool.6 mph54%30.22 "HgN/A
4:00 PM52 °FCool.6 mph52%30.24 "HgN/A
3:00 PM52 °FCool.8 mph50%30.25 "HgN/A
2:00 PM51 °FPassing clouds.9 mph54%30.28 "Hg14 mi
1:00 PM51 °FCool.5 mph61%30.30 "HgN/A
12:00 PM48 °FCool.3 mph69%30.33 "HgN/A
11:00 AM46 °FPassing clouds.2 mph81%30.34 "Hg14 mi
10:00 AM42 °FQuite cool.2 mph90%30.34 "HgN/A
9:00 AM39 °FChilly.3 mph97%30.35 "HgN/A
Weather by CustomWeather, © 2014

See weather overviewHow to use our weather pages